timestamp,surface_pressure_avg,surface_temp_avg,battery_voltage,lat,long
2022-10-14 00:09:00+00:00,284.5064,13.5,11.93,47.84626,-54.09684
2022-10-14 00:19:00+00:00,289.9113,13.5,11.93,47.84626,-54.09684
2022-10-14 00:29:00+00:00,293.7531,13.49,11.93,47.84626,-54.09684
2022-10-14 00:39:00+00:00,298.6096,13.5,11.93,47.84626,-54.09684
2022-10-14 00:49:00+00:00,307.4497,13.5,11.93,47.84626,-54.09684
2022-10-14 00:59:00+00:00,311.098,13.45,11.93,47.84626,-54.09684
2022-10-14 01:09:00+00:00,312.3764,13.4,11.93,47.84626,-54.09684
2022-10-14 01:19:00+00:00,317.6163,13.47,11.93,47.84626,-54.09684
2022-10-14 01:29:00+00:00,322.3546,13.5,11.93,47.84626,-54.09684
2022-10-14 01:39:00+00:00,318.9996,13.53,11.93,47.84626,-54.09684
2022-10-14 01:49:00+00:00,316.1213,13.56,11.93,47.84626,-54.09684
2022-10-14 01:59:00+00:00,318.7846,13.6,11.93,47.84626,-54.09684
2022-10-14 02:09:00+00:00,321.033,13.6,11.93,47.84626,-54.09684
2022-10-14 02:19:00+00:00,316.7464,13.6,11.93,47.84626,-54.09684
2022-10-14 02:29:00+00:00,315.2363,13.56,11.93,47.84626,-54.09684
2022-10-14 02:39:00+00:00,318.2413,13.57,11.93,47.84626,-54.09684
2022-10-14 02:49:00+00:00,316.2097,13.5,11.93,47.84626,-54.09684
2022-10-14 02:59:00+00:00,311.4313,13.5,11.93,47.84626,-54.09684
2022-10-14 03:09:00+00:00,310.258,13.42,11.93,47.84626,-54.09684
2022-10-14 03:19:00+00:00,310.1397,13.4,11.93,47.84626,-54.09684
2022-10-14 03:29:00+00:00,304.6697,13.3,11.93,47.84626,-54.09684
2022-10-14 03:39:00+00:00,298.7981,13.29,11.93,47.84626,-54.09684
2022-10-14 03:49:00+00:00,298.173,13.2,11.93,47.84626,-54.09684
2022-10-14 03:59:00+00:00,293.028,13.2,11.93,47.84626,-54.09684
2022-10-14 04:09:00+00:00,285.6981,13.1,11.93,47.84626,-54.09684
2022-10-14 04:19:01+00:00,283.3948,13.1,11.93,47.84626,-54.09684
2022-10-14 04:29:01+00:00,283.6414,13.1,11.93,47.84626,-54.09684
2022-10-14 04:39:01+00:00,275.8281,13.1,11.93,47.84626,-54.09684
2022-10-14 04:49:01+00:00,264.3514,13.1,11.93,47.84626,-54.09684
2022-10-14 04:59:01+00:00,260.7397,13.1,11.93,47.84626,-54.09684
2022-10-14 05:09:01+00:00,257.0464,13.1,11.93,47.84626,-54.09684
2022-10-14 05:19:00+00:00,248.5047,13.1,11.93,47.84626,-54.09684
2022-10-14 05:29:00+00:00,241.6031,13.1,11.93,47.84626,-54.09684
2022-10-14 05:39:00+00:00,237.8231,13.1,11.93,47.84626,-54.09684
2022-10-14 05:49:00+00:00,228.8331,13.1,11.93,47.84626,-54.09684
2022-10-14 05:59:00+00:00,218.3347,13.1,11.93,47.84626,-54.09684
2022-10-14 06:09:00+00:00,209.8531,13.1,11.93,47.84626,-54.09684
2022-10-14 06:19:00+00:00,201.3048,13.1,11.93,47.84626,-54.09684
2022-10-14 06:29:00+00:00,194.6964,13.1,11.93,47.84626,-54.09684
2022-10-14 06:39:00+00:00,189.8664,13.1,11.93,47.84626,-54.09684
2022-10-14 06:49:00+00:00,184.3915,13.0,11.93,47.84626,-54.09684
2022-10-14 06:59:00+00:00,179.1265,13.0,11.93,47.84626,-54.09684
2022-10-14 07:09:00+00:00,177.3215,12.99,11.93,47.84626,-54.09684
2022-10-14 07:19:01+00:00,176.7814,13.0,11.93,47.84626,-54.09684
2022-10-14 07:29:01+00:00,173.0415,13.0,11.93,47.84626,-54.09684
2022-10-14 07:39:01+00:00,174.0364,13.0,11.93,47.84626,-54.09684
2022-10-14 07:49:01+00:00,176.1848,13.0,11.93,47.84626,-54.09684
2022-10-14 07:59:01+00:00,172.7081,13.04,11.93,47.84626,-54.09684
2022-10-14 08:09:01+00:00,172.8282,13.08,11.93,47.84626,-54.09684
2022-10-14 08:19:00+00:00,176.4648,13.1,11.93,47.84626,-54.09684
2022-10-14 08:29:00+00:00,179.3198,13.1,11.93,47.84626,-54.09684
2022-10-14 08:39:00+00:00,183.5031,13.1,11.93,47.84626,-54.09684
2022-10-14 08:49:00+00:00,189.5748,13.1,11.93,47.84626,-54.09684
2022-10-14 08:59:00+00:00,197.7831,13.1,11.93,47.84626,-54.09684
2022-10-14 09:09:00+00:00,204.8864,13.1,11.93,47.84626,-54.09684
2022-10-14 09:19:00+00:00,208.2348,13.1,11.93,47.84626,-54.09684
2022-10-14 09:29:00+00:00,214.1631,13.1,11.93,47.84626,-54.09684
2022-10-14 09:39:00+00:00,222.3714,13.1,11.93,47.84626,-54.09684
2022-10-14 09:49:00+00:00,224.5464,13.1,11.93,47.84626,-54.09684
2022-10-14 09:59:00+00:00,228.3531,13.0,11.93,47.84626,-54.09684
2022-10-14 10:09:00+00:00,235.2264,13.0,11.93,47.84626,-54.09684
2022-10-14 10:19:00+00:00,237.2164,13.0,11.93,47.84626,-54.09684
2022-10-14 10:29:00+00:00,235.463,13.02,11.93,47.84626,-54.09684
2022-10-14 10:39:00+00:00,239.7048,13.09,11.93,47.84626,-54.09684
2022-10-14 10:49:00+00:00,244.3815,13.1,11.93,47.84626,-54.09684
2022-10-14 10:59:00+00:00,245.7681,13.1,11.93,47.84626,-54.09684
2022-10-14 11:09:00+00:00,250.4781,13.1,11.93,47.84626,-54.09684
2022-10-14 11:19:00+00:00,256.9364,13.12,11.93,47.84626,-54.09684
2022-10-14 11:29:00+00:00,258.228,13.15,11.93,47.84626,-54.09684
2022-10-14 11:39:00+00:00,258.143,13.16,11.93,47.84626,-54.09684
2022-10-14 11:49:00+00:00,265.9347,13.16,11.93,47.84626,-54.09684
2022-10-14 11:59:00+00:00,275.0714,13.15,11.93,47.84626,-54.09684
2022-10-14 12:09:00+00:00,277.9648,13.16,11.93,47.84626,-54.09684
2022-10-14 12:19:00+00:00,279.8647,13.18,11.93,47.84626,-54.09684
2022-10-14 12:29:00+00:00,287.7263,13.18,11.93,47.84626,-54.09684
2022-10-14 12:39:00+00:00,297.5897,13.16,11.93,47.84626,-54.09684
2022-10-14 12:49:00+00:00,302.3364,13.2,11.93,47.84626,-54.09684
2022-10-14 12:59:00+00:00,309.4014,13.2,11.93,47.84626,-54.09684
2022-10-14 13:09:00+00:00,318.7629,13.2,11.93,47.84626,-54.09684
2022-10-14 13:19:00+00:00,323.6595,13.2,12.17,47.84626,-54.09684
2022-10-14 13:29:00+00:00,324.368,13.3,12.17,47.84626,-54.09684
2022-10-14 13:39:00+00:00,330.7213,13.4,12.17,47.84626,-54.09684
2022-10-14 13:49:00+00:00,336.6312,13.46,12.17,47.84626,-54.09684
2022-10-14 13:59:00+00:00,333.6746,13.4,12.17,47.84626,-54.09684
2022-10-14 14:09:00+00:00,332.3895,13.3,12.17,47.84626,-54.09684
2022-10-14 14:19:00+00:00,338.1696,13.37,12.25,47.84626,-54.09684
2022-10-14 14:29:00+00:00,336.7396,13.5,12.25,47.84626,-54.09684
2022-10-14 14:39:00+00:00,330.4347,13.58,12.25,47.84626,-54.09684
2022-10-14 14:49:00+00:00,332.8729,13.5,12.25,47.84626,-54.09684
2022-10-14 14:59:00+00:00,335.5829,13.5,12.25,47.84626,-54.09684
2022-10-14 15:09:00+00:00,330.1847,13.54,12.25,47.84626,-54.09684
2022-10-14 15:19:00+00:00,327.6713,13.6,12.49,47.84626,-54.09684
2022-10-14 15:29:00+00:00,330.1196,13.6,12.49,47.84626,-54.09684
2022-10-14 15:39:00+00:00,327.3763,13.6,12.49,47.84626,-54.09684
2022-10-14 15:49:00+00:00,320.753,13.6,12.49,47.84626,-54.09684
2022-10-14 15:59:00+00:00,319.6647,13.6,12.49,47.84626,-54.09684
2022-10-14 16:09:00+00:00,322.6696,13.6,12.49,47.84626,-54.09684
2022-10-14 16:19:00+00:00,317.7896,13.6,12.41,47.84626,-54.09684
2022-10-14 16:29:00+00:00,308.1163,13.6,12.41,47.84626,-54.09684
2022-10-14 16:39:00+00:00,303.5298,13.6,12.41,47.84626,-54.09684
2022-10-14 16:49:00+00:00,303.3447,13.6,12.41,47.84626,-54.09684
2022-10-14 16:59:00+00:00,293.828,13.6,12.41,47.84626,-54.09684
2022-10-14 17:09:00+00:00,281.6548,13.6,12.41,47.84626,-54.09684
2022-10-14 17:19:00+00:00,274.3047,13.6,12.41,47.84626,-54.09684
2022-10-14 17:29:00+00:00,268.0214,13.62,12.41,47.84626,-54.09684
2022-10-14 17:39:00+00:00,259.5898,13.66,12.41,47.84626,-54.09684
2022-10-14 17:49:00+00:00,250.8314,13.67,12.41,47.84626,-54.09684
2022-10-14 17:59:00+00:00,245.5181,13.67,12.41,47.84626,-54.09684
2022-10-14 18:09:00+00:00,243.0531,13.67,12.41,47.84626,-54.09684
2022-10-14 18:19:00+00:00,235.4915,13.67,12.33,47.84626,-54.09684
2022-10-14 18:29:00+00:00,223.8848,13.67,12.33,47.84626,-54.09684
2022-10-14 18:39:00+00:00,214.9265,13.66,12.33,47.84626,-54.09684
2022-10-14 18:49:00+00:00,210.1664,13.67,12.33,47.84626,-54.09684
2022-10-14 18:59:00+00:00,201.9498,13.66,12.33,47.84626,-54.09684
2022-10-14 19:09:00+00:00,191.8615,13.66,12.33,47.84626,-54.09684
2022-10-14 19:19:00+00:00,187.7031,13.67,12.17,47.84626,-54.09684
2022-10-14 19:29:00+00:00,184.7448,13.67,12.17,47.84626,-54.09684
2022-10-14 19:39:00+00:00,178.3198,13.67,12.17,47.84626,-54.09684
2022-10-14 19:49:00+00:00,173.4599,13.67,12.17,47.84626,-54.09684
2022-10-14 19:59:00+00:00,175.0115,13.65,12.17,47.84626,-54.09684
2022-10-14 20:09:00+00:00,177.5981,13.67,12.17,47.84626,-54.09684
2022-10-14 20:19:00+00:00,175.6131,13.68,12.09,47.84626,-54.09684
2022-10-14 20:29:00+00:00,179.3415,13.68,12.09,47.84626,-54.09684
2022-10-14 20:39:00+00:00,189.5314,13.67,12.09,47.84626,-54.09684
2022-10-14 20:49:00+00:00,192.4499,13.68,12.09,47.84626,-54.09684
2022-10-14 20:59:00+00:00,193.0914,13.69,12.09,47.84626,-54.09684
2022-10-14 21:09:00+00:00,198.6714,13.69,12.09,47.84626,-54.09684
2022-10-14 21:19:00+00:00,204.2348,13.69,12.01,47.84626,-54.09684
2022-10-14 21:29:00+00:00,207.8164,13.69,12.01,47.84626,-54.09684
2022-10-14 21:39:00+00:00,213.1398,13.69,12.01,47.84626,-54.09684
2022-10-14 21:49:00+00:00,216.7864,13.69,12.01,47.84626,-54.09684
2022-10-14 21:59:00+00:00,217.3081,13.69,12.01,47.84626,-54.09684
2022-10-14 22:09:00+00:00,220.1631,13.7,12.01,47.84626,-54.09684
2022-10-14 22:19:00+00:00,223.8014,13.7,12.01,47.84626,-54.09684
2022-10-14 22:29:00+00:00,223.9314,13.7,12.01,47.84626,-54.09684
2022-10-14 22:39:00+00:00,224.8098,13.7,12.01,47.84626,-54.09684
2022-10-14 22:49:00+00:00,228.4198,13.69,12.01,47.84626,-54.09684
2022-10-14 22:59:00+00:00,228.6548,13.69,12.01,47.84626,-54.09684
2022-10-14 23:09:00+00:00,229.5331,13.69,12.01,47.84626,-54.09684
2022-10-14 23:19:00+00:00,233.4831,13.68,12.01,47.84626,-54.09684
2022-10-14 23:29:00+00:00,238.0847,13.69,12.01,47.84626,-54.09684
2022-10-14 23:39:00+00:00,239.6347,13.69,12.01,47.84626,-54.09684
2022-10-14 23:49:00+00:00,242.7898,13.69,12.01,47.84626,-54.09684
2022-10-14 23:59:00+00:00,250.0747,13.69,12.01,47.84626,-54.09684
